When you browse on this site, cookies collect data to enhance your experience and personalize the content and advertising you see.
Visit our Privacy Policy to learn more. By continuing to use the site, you agree to this use of cookies and data.
  • In Österreich
  • Länderverzeichnis
  • Für 7 Tage
  • Wassertemperatur
  • Wetterkarte
  • News
  • Widgets
  • user-avatar
    Anmelden

    Stündliche Wetter Saga

    Heute, 20 August, Dienstag

    Zeit Temperatur Niederschläge Wind Luftdruck Luftfeuchtigkeit
    00:00 +28°C° 0.9 mm 1 m/S 756 mmHg 85%
    01:00 +28°C° 0.5 mm 1 m/S 755 mmHg 85%
    02:00 +28°C° 0.5 mm 1 m/S 755 mmHg 86%
    03:00 +27°C° 0 mm 1 m/S 755 mmHg 86%
    04:00 +27°C° 7 mm 1 m/S 755 mmHg 88%
    05:00 +27°C° 7 mm 1 m/S 755 mmHg 90%
    06:00 +27°C° 7 mm 1 m/S 755 mmHg 92%
    07:00 +27°C° 10.3 mm 1 m/S 755 mmHg 92%
    08:00 +27°C° 10.3 mm 2 m/S 755 mmHg 92%
    09:00 +28°C° 0 mm 2 m/S 756 mmHg 92%
    10:00 +28°C° 2.9 mm 2 m/S 756 mmHg 90%
    11:00 +28°C° 2.9 mm 2 m/S 756 mmHg 89%
    12:00 +29°C° 2.9 mm 2 m/S 756 mmHg 87%
    13:00 +29°C° 0.4 mm 2 m/S 755 mmHg 85%
    14:00 +29°C° 0.4 mm 2 m/S 755 mmHg 83%
    15:00 +31°C° 0 mm 2 m/S 755 mmHg 80%
    16:00 +31°C° 0.5 mm 2 m/S 755 mmHg 79%
    17:00 +31°C° 0.5 mm 2 m/S 755 mmHg 79%
    18:00 +31°C° 0.5 mm 2 m/S 755 mmHg 78%
    19:00 +30°C° 0.6 mm 2 m/S 756 mmHg 80%
    20:00 +30°C° 0.6 mm 2 m/S 756 mmHg 81%
    21:00 +29°C° 0.6 mm 2 m/S 756 mmHg 83%
    22:00 +29°C° 0.2 mm 2 m/S 756 mmHg 83%
    23:00 +29°C° 0.2 mm 2 m/S 756 mmHg 82%

    Morgen, 21 August, Mittwoch

    Zeit Temperatur Niederschläge Wind Luftdruck Luftfeuchtigkeit
    00:00 +29°C° 0.2 mm 2 m/S 756 mmHg 82%
    01:00 +29°C° 0 mm 2 m/S 756 mmHg 83%
    02:00 +29°C° 0 mm 2 m/S 756 mmHg 83%
    03:00 +29°C° 0 mm 2 m/S 755 mmHg 84%
    04:00 +29°C° 0 mm 2 m/S 756 mmHg 85%
    05:00 +28°C° 0 mm 2 m/S 756 mmHg 86%
    06:00 +28°C° 0 mm 1 m/S 756 mmHg 87%
    07:00 +29°C° 0.1 mm 2 m/S 756 mmHg 83%
    08:00 +30°C° 0.1 mm 2 m/S 756 mmHg 78%
    09:00 +31°C° 0.1 mm 2 m/S 757 mmHg 74%
    10:00 +33°C° 0 mm 3 m/S 757 mmHg 70%
    11:00 +34°C° 0 mm 3 m/S 757 mmHg 67%
    12:00 +35°C° 0 mm 4 m/S 757 mmHg 63%
    13:00 +35°C° 0 mm 4 m/S 756 mmHg 61%
    14:00 +35°C° 0 mm 4 m/S 756 mmHg 58%
    15:00 +35°C° 0 mm 4 m/S 756 mmHg 55%
    16:00 +35°C° 0 mm 3 m/S 756 mmHg 58%
    17:00 +34°C° 0 mm 3 m/S 756 mmHg 60%
    18:00 +33°C° 0 mm 3 m/S 756 mmHg 63%
    19:00 +31°C° 0 mm 2 m/S 756 mmHg 67%
    20:00 +30°C° 0 mm 2 m/S 757 mmHg 72%
    21:00 +29°C° 0 mm 2 m/S 757 mmHg 76%
    22:00 +29°C° 0 mm 2 m/S 757 mmHg 78%
    23:00 +29°C° 0 mm 2 m/S 757 mmHg 79%

    übermorgen, 22 August, Donnerstag

    Zeit Temperatur Niederschläge Wind Luftdruck Luftfeuchtigkeit
    00:00 +28°C° 0 mm 1 m/S 757 mmHg 81%
    01:00 +28°C° 0 mm 1 m/S 757 mmHg 82%
    02:00 +28°C° 0 mm 1 m/S 756 mmHg 83%
    03:00 +28°C° 0 mm 1 m/S 756 mmHg 85%
    04:00 +28°C° 0 mm 1 m/S 756 mmHg 85%
    05:00 +28°C° 0 mm 1 m/S 756 mmHg 85%
    06:00 +28°C° 0 mm 1 m/S 756 mmHg 85%
    07:00 +29°C° 0 mm 2 m/S 756 mmHg 80%
    08:00 +30°C° 0 mm 2 m/S 756 mmHg 75%
    09:00 +31°C° 0 mm 3 m/S 756 mmHg 70%
    10:00 +33°C° 0 mm 3 m/S 756 mmHg 66%
    11:00 +34°C° 0 mm 4 m/S 756 mmHg 62%
    12:00 +34°C° 0 mm 4 m/S 756 mmHg 58%
    13:00 +35°C° 0 mm 4 m/S 755 mmHg 58%
    14:00 +35°C° 0 mm 4 m/S 755 mmHg 58%
    15:00 +35°C° 0 mm 4 m/S 754 mmHg 58%
    16:00 +34°C° 0 mm 4 m/S 754 mmHg 62%
    17:00 +33°C° 0 mm 4 m/S 754 mmHg 66%
    18:00 +33°C° 0 mm 4 m/S 754 mmHg 69%
    19:00 +31°C° 0 mm 3 m/S 754 mmHg 73%
    20:00 +30°C° 0 mm 3 m/S 755 mmHg 77%
    21:00 +29°C° 0 mm 3 m/S 755 mmHg 81%
    22:00 +29°C° 0 mm 3 m/S 755 mmHg 82%
    23:00 +29°C° 0 mm 3 m/S 755 mmHg 83%

    23 August, Freitag

    Zeit Temperatur Niederschläge Wind Luftdruck Luftfeuchtigkeit
    00:00 +29°C° 0 mm 3 m/S 755 mmHg 85%
    01:00 +29°C° 0 mm 3 m/S 754 mmHg 85%
    02:00 +29°C° 0 mm 2 m/S 754 mmHg 85%
    03:00 +28°C° 0 mm 2 m/S 754 mmHg 86%
    04:00 +28°C° 0 mm 2 m/S 754 mmHg 86%
    05:00 +28°C° 0 mm 2 m/S 754 mmHg 87%
    06:00 +28°C° 0 mm 2 m/S 754 mmHg 87%
    07:00 +29°C° 0.2 mm 3 m/S 754 mmHg 83%
    08:00 +30°C° 0.2 mm 3 m/S 754 mmHg 78%
    09:00 +31°C° 0.2 mm 3 m/S 754 mmHg 74%
    10:00 +33°C° 0.2 mm 4 m/S 754 mmHg 71%
    11:00 +33°C° 0.2 mm 4 m/S 754 mmHg 68%
    12:00 +34°C° 0.2 mm 5 m/S 754 mmHg 66%
    13:00 +34°C° 0.6 mm 5 m/S 754 mmHg 67%
    14:00 +34°C° 0.6 mm 5 m/S 753 mmHg 68%
    15:00 +33°C° 0.6 mm 4 m/S 753 mmHg 69%
    16:00 +33°C° 0.6 mm 4 m/S 753 mmHg 70%
    17:00 +32°C° 0.6 mm 4 m/S 753 mmHg 72%
    18:00 +31°C° 0.6 mm 3 m/S 753 mmHg 74%
    19:00 +30°C° 0.3 mm 3 m/S 753 mmHg 76%
    20:00 +30°C° 0.3 mm 2 m/S 753 mmHg 78%
    21:00 +29°C° 0.3 mm 2 m/S 754 mmHg 80%
    22:00 +29°C° 0.1 mm 2 m/S 754 mmHg 81%
    23:00 +29°C° 0.1 mm 2 m/S 753 mmHg 82%

    24 August, Samstag

    Zeit Temperatur Niederschläge Wind Luftdruck Luftfeuchtigkeit
    00:00 +29°C° 0.1 mm 1 m/S 753 mmHg 82%
    01:00 +28°C° 0.1 mm 1 m/S 753 mmHg 83%
    02:00 +28°C° 0.1 mm 1 m/S 753 mmHg 83%
    03:00 +28°C° 0.1 mm 1 m/S 753 mmHg 84%
    04:00 +28°C° 0 mm 1 m/S 753 mmHg 84%
    05:00 +26°C° 0 mm 0 m/S 753 mmHg 84%
    06:00 +26°C° 0 mm 0 m/S 753 mmHg 84%
    07:00 +27°C° 0 mm 0 m/S 753 mmHg 78%
    08:00 +28°C° 0 mm 0 m/S 753 mmHg 72%
    09:00 +29°C° 0 mm 0 m/S 753 mmHg 67%
    10:00 +32°C° 0 mm 1 m/S 753 mmHg 61%
    11:00 +33°C° 0 mm 1 m/S 753 mmHg 54%
    12:00 +35°C° 0 mm 2 m/S 753 mmHg 48%
    13:00 +35°C° 0 mm 2 m/S 752 mmHg 47%
    14:00 +35°C° 0 mm 3 m/S 752 mmHg 46%
    15:00 +35°C° 0 mm 3 m/S 752 mmHg 45%
    16:00 +34°C° 0 mm 3 m/S 752 mmHg 50%
    17:00 +33°C° 0 mm 3 m/S 752 mmHg 54%
    18:00 +30°C° 0 mm 3 m/S 752 mmHg 59%
    19:00 +29°C° 0 mm 3 m/S 753 mmHg 63%
    20:00 +28°C° 0 mm 2 m/S 753 mmHg 67%
    21:00 +28°C° 0 mm 2 m/S 754 mmHg 71%
    22:00 +27°C° 0 mm 2 m/S 754 mmHg 72%
    23:00 +27°C° 0 mm 2 m/S 754 mmHg 73%

    25 August, Sonntag

    Zeit Temperatur Niederschläge Wind Luftdruck Luftfeuchtigkeit
    00:00 +27°C° 0 mm 2 m/S 754 mmHg 74%
    01:00 +26°C° 0 mm 2 m/S 754 mmHg 75%
    02:00 +26°C° 0 mm 2 m/S 754 mmHg 77%
    03:00 +26°C° 0 mm 2 m/S 754 mmHg 78%
    04:00 +26°C° 0 mm 2 m/S 754 mmHg 78%
    05:00 +26°C° 0 mm 2 m/S 754 mmHg 79%
    06:00 +25°C° 0 mm 2 m/S 755 mmHg 79%
    07:00 +27°C° 0 mm 2 m/S 755 mmHg 72%
    08:00 +28°C° 0 mm 2 m/S 755 mmHg 66%
    09:00 +29°C° 0 mm 2 m/S 755 mmHg 59%
    10:00 +30°C° 0 mm 2 m/S 755 mmHg 55%
    11:00 +31°C° 0 mm 2 m/S 756 mmHg 51%
    12:00 +32°C° 0 mm 2 m/S 756 mmHg 47%
    13:00 +33°C° 0 mm 3 m/S 755 mmHg 49%
    14:00 +33°C° 0 mm 3 m/S 755 mmHg 51%
    15:00 +31°C° 0 mm 3 m/S 755 mmHg 53%
    16:00 +31°C° 0 mm 3 m/S 755 mmHg 55%
    17:00 +30°C° 0 mm 3 m/S 755 mmHg 57%
    18:00 +29°C° 0 mm 3 m/S 755 mmHg 60%
    19:00 +29°C° 0 mm 3 m/S 755 mmHg 64%
    20:00 +28°C° 0 mm 3 m/S 755 mmHg 68%
    21:00 +27°C° 0 mm 2 m/S 755 mmHg 72%
    22:00 +26°C° 0 mm 2 m/S 756 mmHg 73%
    23:00 +26°C° 0 mm 2 m/S 756 mmHg 74%
    Mehr zeigen